EHI
0 1 2 2 1 0 0 0 0 0 0 0 0 0 0 0 0 0 0 0 0 0 0 0 0 0 0 0 0 0 0 0 0 0 0 0 0 0 0 0 0 0 0
0 1 1 1 0 0 0 0 0 0 0 0 0 0 0 0 0 0 0 0 0 0 0 0 0 0 0 0 0 0 0 0 0 0 0 0 0 0 0 0 0 0 0
1 0 0 0 0 0 0 0 0 0 0 0 0 0 0 0 0 0 0 0 0 0 0 0 0 0 0 0 0 0 0 0 0 0 0 0 0 0 0 0 0 0 0
2 1 0 0 0 0 0 0 0 0 0 0 0 0 0 0 0 0 0 0 0 0 0 0 0 0 0 0 0 0 0 0 0 0 0 0 0 0 0 0 0 0 0
2 1 0 0 0 0 0 0 0 0 0 0 0 0 0 0 0 0 0 0 0 0 0 0 0 0 0 0 0 0 0 0 0 0 0 0 0 0 0 0 0 0 0
2 1 0 0 0 0 0 0 0 0 0 0 0 0 0 0 0 0 0 0 0 0 0 0 0 0 0 0 0 0 0 0 0 0 0 0 0 0 0 0 0 0 0
1 0 0 0 0 0 0 0 0 0 0 0 0 0 0 0 0 0 0 0 0 0 0 0 0 0 0 0 0 0 0 0 0 0 0 0 0 0 0 0 0 0 0
1 0 0 0 0 0 0 0 0 0 0 0 0 0 0 0 0 0 0 0 0 0 0 0 0 0 0 0 0 0 0 0 0 0 0 0 0 0 0 0 0 0 0
1 0 0 0 0 0 0 0 0 0 0 0 0 0 0 0 0 0 0 0 0 0 0 0 0 0 0 0 0 0 0 0 0 0 0 0 0 0 0 0 0 0 0
2 1 0 0 0 0 0 0 0 0 0 0 0 0 0 0 0 0 0 0 0 0 0 0 0 0 0 0 0 0 0 0 0 0 0 0 0 0 0 0 0 0 0
2 1 0 0 0 0 0 0 0 0 0 0 0 0 0 0 0 0 0 0 0 0 0 0 0 0 0 0 0 0 0 0 0 0 0 0 0 0 0 0 0 0 0
2 1 0 0 0 0 0 0 0 0 0 0 0 0 0 0 0 0 0 0 0 0 0 0 0 0 0 0 0 0 0 0 0 0 0 0 0 0 0 0 0 0 0
1 0 0 0 0 0 0 0 0 0 0 0 0 0 0 0 0 0 0 0 0 0 0 0 0 0 0 0 0 0 0 0 0 0 0 0 0 0 0 0 0 0 0
0 0 0 0 0 0 0 0 0 0 0 0 0 0 0 0 0 0 0 0 0 0 0 0 0 0 0 0 0 0 0 0 0 0 0 0 0 0 0 0 0 0 0
0 0 0 0 0 0 0 0 0 0 0 0 0 0 0 0 0 0 0 0 0 0 0 0 0 0 0 0 0 0 0 0 0 0 0 0 0 0 0 0 0 0 0
0 0 0 0 0 0 0 0 0 0 0 0 0 0 0 0 0 0 0 0 0 0 0 0 0 0 0 0 0 0 0 0 0 0 0 0 0 0 0 0 0 0 0
0 0 0 0 0 0 0 0 0 0 0 0 0 0 0 0 0 0 0 0 0 0 0 0 0 0 0 0 0 0 0 0 0 0 0 0 0 0 0 0 0 0 0
0 0 0 0 0 0 0 0 0 0 0 0 0 0 0 0 0 0 0 0 0 0 0 0 0 0 0 0 0 0 0 0 0 0 0 0 0 0 0 0 0 0 0
0 0 0 0 0 0 0 0 0 0 0 0 0 0 0 0 0 0 0 0 0 0 0 0 0 0 0 0 0 0 0 0 0 0 0 0 0 0 0 0 0 0 0
0 0 0 0 0 0 0 0 0 0 0 0 0 0 0 0 0 0 0 0 0 0 0 0 0 0 0 0 0 0 0 0 0 0 0 0 0 0 0 0 0 0 0
0 0 0 0 0 0 0 0 0 0 0 0 0 0 0 0 0 0 0 0 0 0 0 0 0 0 0 0 0 0 0 0 0 0 0 0 0 0 0 0 0 0 0
0 0 0 0 0 0 0 0 0 0 0 0 0 0 0 0 0 0 0 0 0 0 0 0 0 0 0 0 0 0 0 0 0 0 0 0 0 0 0 0 0 0 0
0 0 0 0 0 0 0 0 0 0 0 0 0 0 0 0 0 0 0 0 0 0 0 0 0 0 0 0 0 0 0 0 0 0 0 0 0 0 0 0 0 0 0
0 0 0 0 0 0 0 0 0 0 0 0 0 0 0 0 0 0 0 0 0 0 0 0 0 0 0 0 0 0 0 0 0 0 0 0 0 0 0 0 0 0 0
0 0 0 0 0 0 0 0 0 0 0 0 0 0 0 0 0 0 0 0 0 0 0 0 0 0 0 0 0 0 0 0 0 0 0 0 0 0 0 0 0 0 0
0 0 0 0 0 0 0 0 0 0 0 0 0 0 0 0 0 0 0 0 0 0 0 0 0 0 0 0 0 0 0 0 0 0 0 0 0 0 0 0 0 0 0
Wind_Speed
4 4 5 5 5 4 4 4 4 3 3 3 2 2 2 2 2 2 3 2 3 3 3 2 2 2 2 1 1 1 2 2 1 1 1 2 1 2 2 2 2 3 5
4 4 5 5 5 4 4 4 3 3 3 2 2 2 2 2 2 2 3 3 3 3 3 3 2 2 2 2 2 2 2 1 2 1 1 2 2 2 2 2 2 3 3
8 6 6 6 5 5 5 5 4 4 3 3 3 3 3 3 3 3 2 3 3 3 3 3 3 2 2 2 2 2 2 1 1 1 2 1 1 2 2 2 2 2 2
7 7 7 6 6 5 5 5 4 4 4 4 4 4 3 2 1 1 1 3 4 3 3 3 3 2 2 2 1 2 1 2 1 1 1 0 1 1 2 2 2 2 1
9 9 9 8 6 6 5 5 5 4 3 4 5 5 4 2 2 2 3 3 3 4 3 3 3 2 2 1 2 2 2 1 1 1 0 0 1 0 1 2 3 2 2
9 8 7 6 5 5 5 5 5 4 3 4 4 5 5 4 4 2 2 2 2 2 3 3 2 2 1 1 1 1 1 1 1 1 1 1 1 1 1 2 2 2 3
10 9 9 8 7 7 7 6 6 4 4 4 4 4 5 5 4 3 2 2 1 1 1 1 1 1 0 0 1 1 0 1 1 1 1 1 2 1 2 2 2 2 2
10 11 11 10 9 9 8 7 7 5 4 4 4 3 4 3 3 3 2 2 1 1 1 0 0 0 0 0 0 0 1 1 1 2 2 2 2 2 2 2 2 1 2
12 11 10 10 10 10 9 9 8 6 5 5 4 4 4 3 3 3 2 1 1 1 1 1 1 1 1 0 0 1 1 1 1 2 2 2 2 2 2 2 3 2 2
11 10 10 10 9 9 7 7 8 7 6 5 5 4 4 3 3 3 2 2 2 1 1 1 1 1 1 1 1 1 1 2 2 2 2 2 2 2 2 2 3 3 3
13 12 11 10 9 8 8 7 7 6 6 5 4 4 4 3 3 3 3 2 2 2 2 2 2 2 2 2 2 2 2 2 3 2 3 4 3 2 2 2 2 3 3
12 11 10 9 9 9 8 8 8 7 6 6 5 4 3 3 3 3 3 2 2 2 3 2 2 3 3 2 3 3 3 3 4 4 3 4 3 3 3 2 3 3 4
9 9 9 10 10 10 9 9 8 8 6 6 5 4 4 4 4 4 3 3 3 3 3 2 3 3 3 3 4 4 4 4 5 5 5 5 4 4 3 4 4 3 4
11 11 10 10 10 9 9 9 8 7 7 6 6 5 5 5 5 4 3 3 3 3 3 3 4 4 4 4 4 4 4 5 5 5 5 5 5 6 5 5 5 4 4
11 12 12 10 9 9 8 8 8 7 7 7 6 6 5 4 4 3 3 3 3 4 3 3 4 4 4 5 5 4 5 5 5 4 5 5 7 8 7 5 5 5 4
13 13 12 11 11 11 10 9 8 8 7 7 7 6 5 4 4 4 3 3 3 3 3 4 4 5 4 6 7 5 4 4 5 5 5 5 7 8 8 9 9 8 7
14 14 14 13 13 12 11 11 10 8 7 7 6 5 5 5 5 4 3 4 4 3 4 4 4 5 7 8 8 7 4 5 5 5 5 5 5 5 5 7 9 9 10
13 13 12 11 10 9 9 8 8 8 8 7 6 6 6 5 4 4 4 4 3 4 4 5 5 6 7 8 8 8 5 5 6 6 6 6 7 6 6 6 7 7 8
12 12 12 10 9 9 9 9 8 7 7 7 7 6 6 5 5 5 5 4 3 4 4 5 5 6 8 9 8 7 3 4 6 6 6 7 7 9 7 6 7 8 8
8 8 9 8 9 8 9 10 9 8 9 9 8 6 6 6 6 6 5 4 4 5 5 5 6 6 7 8 9 6 3 5 6 5 6 9 9 10 8 6 6 8 8
7 9 9 9 9 9 10 9 9 10 9 6 5 5 6 6 6 5 4 4 4 4 5 6 6 6 7 8 9 7 5 5 6 5 5 5 8 10 10 8 8 10 9
8 9 9 7 7 9 10 9 9 8 6 6 5 5 5 5 4 4 4 4 4 4 5 5 6 5 6 7 8 9 9 8 6 7 6 6 8 10 10 8 9 11 9
8 8 9 8 6 8 9 10 8 6 6 6 6 5 5 4 4 5 5 4 4 4 5 4 6 6 5 5 9 10 10 10 7 7 8 9 9 9 8 9 11 8 6
7 7 8 8 7 7 7 7 6 7 7 6 6 5 5 4 4 4 4 4 5 5 5 6 6 6 6 6 5 5 5 7 7 6 7 8 8 8 9 8 7 6 6
6 7 7 7 7 6 6 5 6 7 6 6 5 5 5 5 5 5 5 6 7 7 7 6 6 6 7 8 8 6 5 4 4 3 3 3 4 5 5 5 6 5 5
6 6 6 6 6 6 5 4 5 7 6 5 5 4 4 4 4 4 5 8 10 11 13 13 10 8 11 12 12 11 11 10 6 4 4 5 6 6 6 6 6 5 6
Wind_Direction
145 135 132 130 124 128 127 118 115 108 101 89 87 83 73 55 51 50 59 70 88 95 95 89 81 82 89 78 78 87 69 36 24 60 0 333 308 267 255 250 239 239 236
150 151 140 137 143 147 138 128 123 116 110 104 106 105 104 84 69 39 42 42 62 84 103 104 100 96 93 77 69 81 94 41 32 85 79 345 337 327 303 269 241 243 236
175 173 162 162 160 158 156 149 140 128 120 115 102 88 69 55 45 35 30 20 45 73 88 98 97 90 92 91 78 91 109 101 31 43 123 145 252 311 318 309 303 288 242
176 176 172 170 171 166 151 140 136 128 124 122 122 125 123 119 112 77 45 33 44 62 80 90 92 91 90 93 83 89 101 118 103 18 26 147 170 209 321 326 327 315 284
182 183 182 177 170 157 149 143 131 122 122 121 125 122 115 117 100 76 68 49 35 41 60 84 89 90 89 93 84 86 91 111 138 152 111 70 49 133 215 292 321 328 307
185 183 176 163 159 151 148 145 139 137 133 126 125 131 134 132 121 107 92 60 36 28 38 70 77 85 89 91 95 99 109 120 131 146 162 168 177 197 205 241 274 293 293
182 179 174 173 171 167 165 160 154 155 149 138 136 144 146 146 147 150 143 134 89 31 12 51 60 64 72 89 94 96 106 166 178 194 206 212 219 201 194 214 252 275 292
185 187 184 180 178 176 172 167 166 166 164 156 152 149 147 144 150 158 160 167 180 216 258 353 335 312 321 32 85 88 261 212 221 231 220 225 235 218 205 200 201 264 287
188 188 184 181 179 178 178 176 171 169 172 168 159 159 160 161 164 165 163 175 204 222 220 225 247 277 283 273 220 266 278 263 251 254 244 238 241 228 227 219 205 211 258
186 186 185 183 182 179 174 169 169 173 173 169 172 171 173 175 170 164 178 199 221 231 234 249 259 272 275 257 226 257 267 259 263 251 249 251 248 242 233 225 221 218 226
187 186 185 181 175 168 166 169 171 168 171 176 176 168 174 173 169 181 203 210 225 233 238 245 254 265 270 260 239 252 262 263 271 270 253 258 254 249 241 227 222 220 217
185 181 176 168 169 172 175 176 176 176 180 177 173 178 177 173 185 208 220 220 233 243 243 246 251 259 261 251 242 256 259 255 263 265 258 263 259 253 248 235 233 230 221
173 169 169 173 177 179 180 179 180 182 177 170 173 178 183 190 207 220 227 229 238 252 255 246 249 257 260 256 247 244 252 252 253 254 251 257 254 257 253 247 246 243 238
172 172 178 181 182 181 180 178 182 180 172 171 177 188 199 205 214 220 226 232 236 247 256 254 254 256 259 258 255 249 250 253 254 250 248 251 245 250 254 253 249 246 245
177 181 184 184 180 179 179 178 180 177 173 173 185 202 206 206 209 219 230 235 239 245 250 258 264 264 261 255 249 247 250 251 260 261 256 255 256 252 248 250 247 242 244
187 187 185 182 183 184 182 179 180 179 171 179 195 200 195 199 209 221 229 234 246 254 254 256 263 270 267 270 268 256 247 249 254 264 270 270 267 269 269 265 256 240 239
187 186 188 188 187 186 181 182 183 171 172 186 195 193 193 203 215 220 219 232 242 247 256 261 261 266 270 274 276 267 243 244 249 254 265 274 273 275 274 276 278 268 254
187 188 186 185 184 178 174 171 163 167 178 188 196 195 194 206 212 212 225 236 237 242 250 259 261 265 271 275 276 273 251 246 251 250 251 257 271 272 267 271 275 272 267
185 184 182 176 170 170 166 157 164 170 180 194 201 201 196 202 206 217 231 233 232 244 246 254 258 261 272 273 272 265 242 250 258 256 250 248 259 266 268 264 270 276 276
170 165 158 152 162 167 155 159 171 177 194 202 202 197 193 198 210 221 229 227 226 241 253 259 255 255 264 271 270 256 232 250 262 265 259 251 252 261 264 256 258 269 274
158 153 152 162 172 159 155 167 177 195 202 192 187 190 193 201 212 220 223 229 236 248 254 261 264 259 259 269 267 253 223 236 252 262 265 260 255 259 262 253 247 251 263
147 152 156 163 155 153 159 173 193 198 174 170 182 194 200 209 211 213 227 226 227 247 260 265 275 269 262 259 264 258 238 229 238 252 258 261 266 268 268 260 251 255 260
151 153 155 152 152 162 168 181 196 173 164 171 189 199 204 212 213 214 225 228 224 236 252 255 266 274 272 264 259 261 256 242 234 249 254 262 271 277 273 260 258 258 248
147 146 145 153 167 173 179 186 172 161 165 181 194 197 203 220 223 222 224 226 230 235 245 249 256 265 270 269 263 258 258 252 243 250 261 267 269 265 264 270 265 249 239
141 145 155 166 173 173 182 178 163 159 171 187 198 206 212 218 228 231 228 227 231 223 228 241 242 249 263 260 247 247 253 245 241 243 256 261 267 272 270 266 262 255 244
139 143 150 158 165 165 175 174 167 166 173 191 205 210 214 222 229 244 263 247 243 247 239 238 239 241 244 260 266 260 255 254 238 211 244 257 260 264 269 271 271 261 250